Location: St. Louis
(38.6270°N, 90.1994°W)
Time: 13:45:58
(UTC-06:00)

deb Explorer IX - Pass Details

Date: 04 December 2021
Orbit: 544 x 1082 km, 38.8° (Epoch: 16 January)

Event Time Altitude Azimuth Distance (km) Brightness Sun altitude
Rises 10:46:33 0° 253° (WSW) 3,044 ? 27.2°
Reaches altitude 10° 10:49:05 10° 252° (WSW) 2,049 ? 27.3°
Maximum altitude 10:53:44 75° 168° (SSE) 617 ? 27.6°
Drops below altitude 10° 10:57:55 10° 83° (E) 1,844 ? 27.8°
Sets 11:00:06 0° 81° (E) 2,713 ? 27.9°
